Location: Artiguedieu
(43.5000°N, 0.5454°E)
Time: 21:04:58
(UTC+00:00)

Transit 2A - Pass Details

Date: 28 July 2021
Orbit: 594 x 964 km, 66.7° (Epoch: 28 September)

Event Time Altitude Azimuth Distance (km) Brightness Sun altitude
Rises 05:45:53 0° 162° (SSE) 2,818 9.0 9.7°
Reaches altitude 10° 05:49:01 10° 137° (SE) 1,936 8.5 10.2°
Maximum altitude 05:51:17 14° 105° (ESE) 1,706 9.0 10.6°
Drops below altitude 10° 05:53:36 10° 73° (ENE) 1,994 12.8 11.0°
Sets 05:56:54 0° 49° (NE) 2,963 10.3 11.6°
